Location: Bidwell Hollow
(37.7387°N, 90.1707°W)
Time: 23:01:53
(UTC+00:00)

Altair - Pass Details

Date: 18 May 2026
Orbit: 1501 x 1682 km, 47.2° (Epoch: 6 June)

Event Time Altitude Azimuth Distance (km) Brightness Sun altitude
Exits shadow 07:32:52 18° 144° (SE) 3,200 8.9 -28.4°
Maximum altitude 07:35:29 20° 124° (SE) 3,087 9.0 -28.2°
Drops below altitude 10° 07:42:05 10° 82° (E) 3,889 10.0 -27.6°
Sets 07:46:20 0° 67° (ENE) 4,903 10.9 -27.2°
